This is the latest recevied weather packets stored in our database for station/object DM4JH-5. If no packets are shown the sender has not sent any weather packets the latest 10 day(s).
| Time | Temp. | Humidity | Pressure | Rain* | Wind** | Luminosity | Snow |
|---|---|---|---|---|---|---|---|
| 1787423133 | 18.33° C | 58% | 1017.5 hPa | 0 mm | - | - | - |
| 1787422531 | 18.33° C | 57% | 1017.4 hPa | 0 mm | - | - | - |
| 1787421930 | 18.89° C | 57% | 1017.2 hPa | 0 mm | - | - | - |
| 1787421328 | 18.89° C | 57% | 1017.2 hPa | 0 mm | - | - | - |
| 1787420727 | 18.89° C | 56% | 1017.2 hPa | 0 mm | - | - | - |
| 1787420124 | 19.44° C | 58% | 1017.4 hPa | 0 mm | - | - | - |
| 1787419523 | 19.44° C | 57% | 1017.4 hPa | 0 mm | - | - | - |
| 1787418921 | 19.44° C | 57% | 1017.5 hPa | 0 mm | - | - | - |
| 1787418319 | 19.44° C | 57% | 1017.4 hPa | 0 mm | - | - | - |
| 1787417747 | 19.44° C | 57% | 1017.4 hPa | 0 mm | - | - | - |
| 1787417146 | 19.44° C | 56% | 1017.3 hPa | 0 mm | - | - | - |
| 1787416544 | 20° C | 50% | 1017.1 hPa | 0 mm | - | - | - |
| 1787415942 | 20.56° C | 48% | 1016.9 hPa | 0 mm | - | - | - |
| 1787415340 | 20.56° C | 52% | 1016.7 hPa | 0 mm | - | - | - |
| 1787414739 | 20.56° C | 50% | 1016.6 hPa | 0 mm | - | - | - |
| 1787414137 | 21.11° C | 49% | 1016.4 hPa | 0 mm | - | - | - |
| 1787413535 | 21.67° C | 48% | 1016.1 hPa | 0 mm | - | - | - |
| 1787412934 | 21.11° C | 49% | 1016 hPa | 0 mm | - | - | - |
| 1787412362 | 21.11° C | 50% | 1016.1 hPa | 0 mm | - | - | - |
| 1787411730 | 21.67° C | 49% | 1016 hPa | 0 mm | - | - | - |
| 1787411129 | 21.67° C | 49% | 1016 hPa | 0 mm | - | - | - |
| 1787410527 | 21.11° C | 49% | 1015.8 hPa | 0 mm | - | - | - |
| 1787409925 | 20.56° C | 49% | 1015.9 hPa | 0 mm | - | - | - |
| 1787409324 | 20.56° C | 51% | 1015.9 hPa | 0 mm | - | - | - |
| 1787408752 | 20.56° C | 50% | 1015.9 hPa | 0 mm | - | - | - |
* Rain latest hour (hover to see other rain measurements)
** Current wind speed in m/s (hover to see current wind gust speed)